This is the latest recevied weather packets stored in our database for station/object ALANSN-2. If no packets are shown the sender has not sent any weather packets the latest 10 day(s).
| Time | Temp. | Humidity | Pressure | Rain* | Wind** | Luminosity | Snow |
|---|---|---|---|---|---|---|---|
| 1787946717 | 23.33° C | 66% | 1031.5 hPa | 0 mm | - | 542 W/m² | - |
| 1787946419 | 23.33° C | 66% | 1031.5 hPa | 0 mm | - | 542 W/m² | - |
| 1787946120 | 22.22° C | 67% | 1031.6 hPa | 0 mm | - | 556 W/m² | - |
| 1787945818 | 22.22° C | 69% | 1031.8 hPa | 0 mm | - | 564 W/m² | - |
| 1787945519 | 22.22° C | 69% | 1031.8 hPa | 0 mm | - | 564 W/m² | - |
| 1787945219 | 23.33° C | 68% | 1031.6 hPa | 0 mm | - | 576 W/m² | - |
| 1787944919 | 22.78° C | 66% | 1031.8 hPa | 0 mm | - | 586 W/m² | - |
| 1787944620 | 22.78° C | 66% | 1031.8 hPa | 0 mm | - | 586 W/m² | - |
| 1787944318 | 22.78° C | 67% | 1031.8 hPa | 0 mm | - | 558 W/m² | - |
| 1787944020 | 23.89° C | 64% | 1031.9 hPa | 0 mm | - | 591 W/m² | - |
| 1787943717 | 23.89° C | 64% | 1031.9 hPa | 0 mm | - | 591 W/m² | - |
| 1787943420 | 23.33° C | 65% | 1031.8 hPa | 0 mm | - | 599 W/m² | - |
| 1787943117 | 22.78° C | 66% | 1031.8 hPa | 0 mm | - | 580 W/m² | - |
| 1787942820 | 22.78° C | 66% | 1031.8 hPa | 0 mm | - | 580 W/m² | - |
| 1787942518 | 23.33° C | 64% | 1031.9 hPa | 0 mm | - | 588 W/m² | - |
| 1787942221 | 24.44° C | 60% | 1031.9 hPa | 0 mm | - | 607 W/m² | - |
| 1787941917 | 24.44° C | 60% | 1031.9 hPa | 0 mm | - | 607 W/m² | - |
| 1787941618 | 23.89° C | 57% | 1031.9 hPa | 0 mm | - | 607 W/m² | - |
| 1787941318 | 23.89° C | 61% | 1032.1 hPa | 0 mm | - | 602 W/m² | - |
| 1787941020 | 22.78° C | 62% | 1031.9 hPa | 0 mm | - | 573 W/m² | - |
| 1787940718 | 22.78° C | 62% | 1031.9 hPa | 0 mm | - | 553 W/m² | - |
| 1787940417 | 22.22° C | 63% | 1031.8 hPa | 0 mm | - | 402 W/m² | - |
| 1787940120 | 22.78° C | 62% | 1031.9 hPa | 0 mm | - | 654 W/m² | - |
| 1787939818 | 22.22° C | 65% | 1032.2 hPa | 0 mm | - | 374 W/m² | - |
| 1787939518 | 21.67° C | 62% | 1032.4 hPa | 0 mm | - | 551 W/m² | - |
* Rain latest hour (hover to see other rain measurements)
** Current wind speed in m/s (hover to see current wind gust speed)